| time (UTC) | temp C | wind direction | speed KPH | gust KPH | rain 1hr cm | rain 24hr cm | rain mn cm | humidity % | barometer mb |
| 20260507122105 | 13 | 76 | 1.6 | 4.8 | 0.00 | 0.05 | 0.00 | 70 | 1017.7 |
| 20260507121605 | 13 | 312 | 0.0 | 3.2 | 0.00 | 0.05 | 0.00 | 70 | 1017.8 |
| 20260507121105 | 13 | 312 | 0.0 | 1.6 | 0.00 | 0.05 | 0.00 | 72 | 1017.9 |
| 20260507115105 | 12 | 312 | 3.2 | 4.8 | 0.00 | 0.05 | 0.00 | 71 | 1018.0 |
| 20260507114605 | 13 | 58 | 0.0 | 3.2 | 0.00 | 0.05 | 0.00 | 70 | 1018.0 |
| 20260507111605 | 12 | 81 | 0.0 | 4.8 | 0.00 | 0.13 | 0.00 | 74 | 1018.1 |
| 20260507111105 | 12 | 76 | 1.6 | 4.8 | 0.00 | 0.15 | 0.00 | 75 | 1018.2 |
| 20260507104104 | 11 | 120 | 0.0 | 0.0 | 0.00 | 0.20 | 0.00 | 74 | 1018.2 |
| 20260507103105 | 12 | 132 | 1.6 | 8.0 | 0.00 | 0.23 | 0.00 | 75 | 1018.2 |
| 20260507101105 | 11 | 64 | 3.2 | 4.8 | 0.00 | 0.25 | 0.00 | 77 | 1018.2 |
| 20260507100105 | 11 | 70 | 1.6 | 4.8 | 0.00 | 0.25 | 0.00 | 76 | 1018.1 |
| 20260507095105 | 11 | 69 | 0.0 | 1.6 | 0.00 | 0.25 | 0.00 | 76 | 1018.1 |
| 20260507092605 | 11 | 62 | 0.0 | 1.6 | 0.00 | 0.25 | 0.00 | 77 | 1018.1 |
| 20260507092105 | 11 | 62 | 0.0 | 4.8 | 0.00 | 0.25 | 0.00 | 77 | 1018.0 |
| 20260507090105 | 10 | 52 | 0.0 | 1.6 | 0.00 | 0.25 | 0.00 | 78 | 1018.0 |
| 20260507085605 | 10 | 52 | 1.6 | 4.8 | 0.00 | 0.25 | 0.00 | 79 | 1018.1 |
| 20260507085105 | 10 | 24 | 0.0 | 0.0 | 0.00 | 0.25 | 0.00 | 78 | 1018.0 |
| 20260507084605 | 10 | 24 | 0.0 | 0.0 | 0.00 | 0.25 | 0.00 | 78 | 1018.1 |
| 20260507082605 | 10 | 24 | 0.0 | 1.6 | 0.00 | 0.28 | 0.00 | 79 | 1018.0 |
| 20260507082105 | 10 | 24 | 0.0 | 0.0 | 0.00 | 0.28 | 0.00 | 80 | 1018.0 |
| 20260507081105 | 10 | 338 | 0.0 | 1.6 | 0.00 | 0.28 | 0.00 | 79 | 1017.9 |
| 20260507075605 | 10 | 106 | 0.0 | 1.6 | 0.00 | 0.28 | 0.00 | 81 | 1017.8 |
| 20260507075105 | 9 | 106 | 0.0 | 4.8 | 0.00 | 0.28 | 0.00 | 82 | 1017.8 |
| 20260507074604 | 9 | 106 | 0.0 | 1.6 | 0.00 | 0.28 | 0.00 | 82 | 1017.8 |
| 20260507074105 | 9 | 128 | 0.0 | 1.6 | 0.00 | 0.28 | 0.00 | 82 | 1017.7 |
| 20260507073605 | 9 | 133 | 0.0 | 3.2 | 0.00 | 0.28 | 0.00 | 83 | 1017.7 |
| 20260507072605 | 9 | 143 | 0.0 | 0.0 | 0.00 | 0.33 | 0.00 | 83 | 1017.5 |
| 20260507071104 | 8 | 143 | 0.0 | 3.2 | 0.00 | 0.41 | 0.00 | 85 | 1017.5 |
| 20260507070605 | 8 | 143 | 0.0 | 3.2 | 0.00 | 0.41 | 0.00 | 85 | 1017.5 |
| 20260507064605 | 8 | 147 | 0.0 | 0.0 | 0.00 | 0.43 | 0.00 | 88 | 1017.5 |
| 20260507063105 | 8 | 147 | 0.0 | 0.0 | 0.00 | 0.43 | 0.00 | 90 | 1017.5 |
| 20260507061105 | 7 | 147 | 0.0 | 0.0 | 0.00 | 0.58 | 0.00 | 90 | 1017.4 |
| 20260507060105 | 7 | 147 | 0.0 | 0.0 | 0.00 | 0.66 | 0.00 | 91 | 1017.3 |
| 20260507052605 | 6 | 243 | 0.0 | 0.0 | 0.00 | 0.76 | 0.00 | 91 | 1017.0 |
| 20260507051605 | 6 | 243 | 0.0 | 0.0 | 0.00 | 0.76 | 0.00 | 91 | 1017.0 |
| 20260507051107 | 6 | 243 | 0.0 | 0.0 | 0.00 | 0.76 | 0.00 | 91 | 1017.0 |
| 20260507050105 | 6 | 243 | 0.0 | 0.0 | 0.00 | 0.76 | 0.00 | 91 | 1017.0 |
| 20260507045605 | 6 | 243 | 0.0 | 0.0 | 0.00 | 0.76 | 0.00 | 91 | 1017.0 |
| 20260507045105 | 6 | 243 | 0.0 | 0.0 | 0.00 | 0.76 | 0.00 | 91 | 1016.9 |
| 20260507044105 | 6 | 243 | 0.0 | 0.0 | 0.00 | 0.76 | 0.00 | 91 | 1016.9 |
| 20260507043605 | 6 | 243 | 0.0 | 0.0 | 0.00 | 0.76 | 0.00 | 90 | 1016.9 |
| 20260507042605 | 6 | 46 | 0.0 | 0.0 | 0.00 | 0.76 | 0.00 | 90 | 1016.8 |
| 20260507040605 | 6 | 46 | 0.0 | 0.0 | 0.00 | 0.76 | 0.00 | 90 | 1016.8 |
| 20260507040105 | 6 | 46 | 0.0 | 0.0 | 0.00 | 0.76 | 0.00 | 90 | 1016.6 |
| 20260507035605 | 6 | 46 | 0.0 | 0.0 | 0.00 | 0.76 | 0.00 | 90 | 1016.6 |
| 20260507035104 | 6 | 46 | 0.0 | 0.0 | 0.00 | 0.76 | 0.00 | 90 | 1016.6 |
| 20260507034605 | 6 | 46 | 0.0 | 0.0 | 0.00 | 0.76 | 0.00 | 90 | 1016.5 |
| 20260507034105 | 6 | 46 | 0.0 | 0.0 | 0.00 | 0.76 | 0.00 | 90 | 1016.5 |
| 20260507025605 | 6 | 46 | 0.0 | 0.0 | 0.00 | 0.76 | 0.00 | 90 | 1016.4 |
| 20260507025105 | 6 | 46 | 0.0 | 0.0 | 0.00 | 0.76 | 0.00 | 90 | 1016.4 |
| 20260507024105 | 6 | 46 | 0.0 | 0.0 | 0.00 | 0.76 | 0.00 | 90 | 1016.4 |
| 20260507022605 | 6 | 46 | 0.0 | 0.0 | 0.00 | 0.76 | 0.00 | 89 | 1016.5 |
| 20260507021605 | 6 | 46 | 0.0 | 0.0 | 0.00 | 0.76 | 0.00 | 89 | 1016.5 |
| 20260507020605 | 6 | 46 | 0.0 | 0.0 | 0.00 | 0.76 | 0.00 | 89 | 1016.4 |
| 20260507014605 | 6 | 46 | 0.0 | 0.0 | 0.00 | 0.76 | 0.00 | 89 | 1016.4 |
| 20260507014105 | 6 | 46 | 0.0 | 0.0 | 0.00 | 0.76 | 0.00 | 89 | 1016.3 |
| 20260507013105 | 7 | 46 | 0.0 | 0.0 | 0.00 | 0.76 | 0.00 | 89 | 1016.3 |
| 20260507011605 | 7 | 46 | 0.0 | 0.0 | 0.00 | 0.76 | 0.00 | 88 | 1016.3 |
| 20260507011104 | 7 | 46 | 0.0 | 0.0 | 0.00 | 0.76 | 0.00 | 88 | 1016.3 |
| 20260507010605 | 7 | 46 | 0.0 | 0.0 | 0.00 | 0.76 | 0.00 | 88 | 1016.3 |
| 20260507005106 | 7 | 46 | 0.0 | 0.0 | 0.00 | 0.76 | 0.00 | 88 | 1016.3 |
| 20260507004605 | 7 | 46 | 0.0 | 0.0 | 0.00 | 0.76 | 0.00 | 88 | 1016.3 |
| 20260507004105 | 7 | 46 | 0.0 | 0.0 | 0.00 | 0.76 | 0.00 | 88 | 1016.2 |
| 20260507003605 | 7 | 46 | 0.0 | 0.0 | 0.00 | 0.76 | 0.00 | 88 | 1016.2 |
| 20260507003105 | 7 | 46 | 0.0 | 0.0 | 0.00 | 0.76 | 0.00 | 88 | 1016.2 |
| 20260507002605 | 7 | 46 | 0.0 | 0.0 | 0.00 | 0.76 | 0.00 | 88 | 1016.3 |
| 20260507001605 | 7 | 46 | 0.0 | 0.0 | 0.00 | 0.76 | 0.00 | 88 | 1016.3 |
| 20260507000605 | 7 | 46 | 0.0 | 0.0 | 0.00 | 0.76 | 0.00 | 88 | 1016.4 |
| 20260507000105 | 7 | 46 | 0.0 | 0.0 | 0.00 | 0.76 | 0.00 | 88 | 1016.4 |
| 20260506235105 | 7 | 46 | 0.0 | 0.0 | 0.00 | 0.76 | 0.00 | 88 | 1016.4 |
| 20260506234105 | 7 | 46 | 0.0 | 0.0 | 0.00 | 0.76 | 0.00 | 88 | 1016.4 |
| 20260506233105 | 7 | 46 | 0.0 | 0.0 | 0.00 | 0.76 | 0.00 | 88 | 1016.3 |
| 20260506231604 | 7 | 46 | 0.0 | 0.0 | 0.00 | 0.76 | 0.00 | 87 | 1016.2 |
| 20260506225105 | 8 | 46 | 0.0 | 1.6 | 0.00 | 0.76 | 0.76 | 87 | 1016.3 |
| 20260506223605 | 8 | 46 | 0.0 | 0.0 | 0.00 | 0.76 | 0.76 | 87 | 1016.3 |
| 20260506223105 | 8 | 46 | 0.0 | 0.0 | 0.00 | 0.76 | 0.76 | 87 | 1016.2 |
| 20260506221605 | 8 | 46 | 0.0 | 0.0 | 0.00 | 0.76 | 0.76 | 87 | 1016.2 |
| 20260506221105 | 8 | 46 | 0.0 | 0.0 | 0.00 | 0.76 | 0.76 | 86 | 1016.2 |
| 20260506220605 | 8 | 46 | 0.0 | 0.0 | 0.00 | 0.76 | 0.76 | 86 | 1016.2 |
| 20260506215605 | 8 | 46 | 0.0 | 0.0 | 0.00 | 0.76 | 0.76 | 86 | 1016.1 |
| 20260506215104 | 8 | 46 | 0.0 | 1.6 | 0.00 | 0.76 | 0.76 | 86 | 1016.1 |
| 20260506214105 | 8 | 46 | 0.0 | 0.0 | 0.00 | 0.76 | 0.76 | 86 | 1016.0 |
| 20260506213605 | 8 | 46 | 0.0 | 0.0 | 0.00 | 0.76 | 0.76 | 86 | 1016.0 |
| 20260506212105 | 8 | 46 | 0.0 | 0.0 | 0.00 | 0.76 | 0.76 | 85 | 1015.9 |
| 20260506211604 | 8 | 46 | 0.0 | 3.2 | 0.00 | 0.76 | 0.76 | 86 | 1015.9 |
| 20260506210105 | 8 | 45 | 0.0 | 1.6 | 0.00 | 0.76 | 0.76 | 85 | 1015.8 |
| 20260506204105 | 8 | 59 | 1.6 | 3.2 | 0.00 | 0.76 | 0.76 | 85 | 1015.8 |
| 20260506203104 | 8 | 72 | 0.0 | 4.8 | 0.00 | 0.76 | 0.76 | 85 | 1015.8 |
| 20260506201605 | 8 | 57 | 1.6 | 9.7 | 0.00 | 0.76 | 0.76 | 85 | 1015.7 |
| 20260506200605 | 8 | 33 | 0.0 | 1.6 | 0.00 | 0.76 | 0.76 | 85 | 1015.5 |
| 20260506200105 | 8 | 33 | 0.0 | 4.8 | 0.00 | 0.76 | 0.76 | 85 | 1015.4 |
| 20260506195605 | 8 | 53 | 0.0 | 4.8 | 0.00 | 0.76 | 0.76 | 85 | 1015.4 |
| 20260506194105 | 8 | 56 | 0.0 | 4.8 | 0.00 | 0.76 | 0.76 | 85 | 1015.2 |
| 20260506193104 | 8 | 64 | 0.0 | 4.8 | 0.00 | 0.76 | 0.76 | 85 | 1015.1 |
| 20260506192605 | 8 | 60 | 0.0 | 3.2 | 0.00 | 0.76 | 0.76 | 85 | 1015.1 |
| 20260506191105 | 8 | 71 | 3.2 | 12.9 | 0.00 | 0.76 | 0.76 | 85 | 1015.0 |
| 20260506190605 | 8 | 56 | 1.6 | 4.8 | 0.00 | 0.76 | 0.76 | 85 | 1014.9 |
| 20260506185105 | 8 | 44 | 1.6 | 11.3 | 0.00 | 0.76 | 0.76 | 86 | 1014.7 |
| 20260506184106 | 8 | 63 | 0.0 | 1.6 | 0.00 | 0.76 | 0.76 | 86 | 1014.7 |
| 20260506181605 | 9 | 63 | 0.0 | 4.8 | 0.00 | 0.76 | 0.76 | 85 | 1014.4 |
| 20260506180105 | 9 | 69 | 1.6 | 14.5 | 0.00 | 0.76 | 0.76 | 86 | 1014.3 |
| 20260506174105 | 9 | 64 | 1.6 | 8.0 | 0.00 | 0.76 | 0.76 | 86 | 1014.1 |
| 20260506173605 | 9 | 54 | 1.6 | 4.8 | 0.00 | 0.76 | 0.76 | 86 | 1014.0 |
| 20260506172105 | 9 | 51 | 3.2 | 12.9 | 0.00 | 0.76 | 0.76 | 87 | 1013.9 |
| 20260506171105 | 10 | 58 | 1.6 | 8.0 | 0.00 | 0.76 | 0.76 | 88 | 1013.9 |
| 20260506170105 | 10 | 68 | 0.0 | 8.0 | 0.00 | 0.76 | 0.76 | 88 | 1013.9 |
| 20260506165605 | 9 | 50 | 0.0 | 4.8 | 0.00 | 0.76 | 0.76 | 89 | 1013.8 |
| 20260506163106 | 9 | 75 | 4.8 | 14.5 | 0.00 | 0.76 | 0.76 | 90 | 1013.8 |
| 20260506162605 | 9 | 38 | 1.6 | 11.3 | 0.00 | 0.76 | 0.76 | 90 | 1013.8 |
| 20260506161105 | 9 | 47 | 0.0 | 4.8 | 0.00 | 0.76 | 0.76 | 90 | 1013.7 |
| 20260506160605 | 9 | 33 | 0.0 | 3.2 | 0.00 | 0.76 | 0.76 | 90 | 1013.8 |
| 20260506155605 | 10 | 66 | 1.6 | 9.7 | 0.00 | 0.76 | 0.76 | 91 | 1013.7 |
| 20260506154605 | 10 | 58 | 0.0 | 4.8 | 0.00 | 0.76 | 0.76 | 91 | 1013.7 |
| 20260506153105 | 10 | 69 | 0.0 | 1.6 | 0.03 | 0.76 | 0.76 | 91 | 1013.7 |
| 20260506151605 | 10 | 38 | 0.0 | 3.2 | 0.03 | 0.76 | 0.76 | 92 | 1013.6 |
| 20260506150105 | 10 | 349 | 0.0 | 3.2 | 0.05 | 0.76 | 0.76 | 92 | 1013.6 |
| 20260506145605 | 10 | 349 | 0.0 | 0.0 | 0.05 | 0.76 | 0.76 | 92 | 1013.6 |
| 20260506143605 | 10 | 349 | 0.0 | 0.0 | 0.03 | 0.74 | 0.74 | 92 | 1013.6 |
| 20260506143104 | 10 | 349 | 0.0 | 3.2 | 0.03 | 0.74 | 0.74 | 92 | 1013.6 |
| 20260506142105 | 10 | 349 | 0.0 | 1.6 | 0.03 | 0.74 | 0.74 | 92 | 1013.6 |
| 20260506140105 | 10 | 349 | 0.0 | 0.0 | 0.00 | 0.71 | 0.71 | 92 | 1013.6 |
| 20260506135604 | 10 | 349 | 0.0 | 1.6 | 0.00 | 0.71 | 0.71 | 92 | 1013.6 |
| 20260506135105 | 10 | 349 | 0.0 | 9.7 | 0.00 | 0.71 | 0.71 | 91 | 1013.6 |
| 20260506134605 | 10 | 346 | 0.0 | 1.6 | 0.00 | 0.71 | 0.71 | 91 | 1013.6 |
| 20260506134105 | 10 | 320 | 1.6 | 4.8 | 0.00 | 0.71 | 0.71 | 92 | 1013.5 |
| 20260506132605 | 10 | 354 | 0.0 | 1.6 | 0.00 | 0.71 | 0.71 | 92 | 1013.6 |
| 20260506132105 | 10 | 354 | 0.0 | 4.8 | 0.00 | 0.71 | 0.71 | 92 | 1013.6 |
| 20260506131605 | 10 | 314 | 0.0 | 1.6 | 0.00 | 0.71 | 0.71 | 92 | 1013.5 |
| 20260506130605 | 10 | 325 | 0.0 | 4.8 | 0.00 | 0.71 | 0.71 | 92 | 1013.6 |
| 20260506125605 | 10 | 354 | 0.0 | 0.0 | 0.00 | 0.71 | 0.71 | 92 | 1013.5 |
| 20260506125105 | 10 | 354 | 0.0 | 1.6 | 0.03 | 0.71 | 0.71 | 91 | 1013.6 |
| 20260506124605 | 10 | 354 | 0.0 | 3.2 | 0.03 | 0.71 | 0.71 | 91 | 1013.6 |
| 20260506123605 | 10 | 314 | 1.6 | 4.8 | 0.05 | 0.71 | 0.71 | 92 | 1013.5 |